Duchifat 3
1 44854U 19089C   25133.42513853  .00033990  00000-0  71720-3 0  9991
2 44854  36.9420 167.5549 0000599 133.2405 226.8401 15.44306652298816
TO-108
1 44881U 19093C   25133.81982015  .00000995  00000-0  12113-3 0  9999
2 44881  97.7927 210.0289 0012832 324.4670  35.5690 14.85546614292108
FloripaSat 1
1 44885U 19093G   25133.83486939  .00005131  00000-0  43717-3 0  9990
2 44885  97.8146 221.3871 0009535 293.6151  66.4069 14.98175651292741
RS-44
1 44909U 19096E   25133.42566490  .00000009  00000-0 -74008-5 0  9995
2 44909  82.5219 245.3168 0217311 359.3817   0.6983 12.79740373251215
UPMSat 2
1 46276U 20061E   25133.80073043  .00060652  00000-0  61032-3 0  9997
2 46276  97.2457 207.3515 0001395 160.6032 199.5281 15.65248297261272
SALSAT
1 46495U 20068K   25133.86765591  .00007442  00000-0  32530-3 0  9998
2 46495  97.8592 110.6730 0009545 252.1757 107.8437 15.22370072254460
CubeSX-Sirius-HSE
1 47951U 21022V   25133.53202905  .00324838  00000-0  13150-2 0  9993
2 47951  97.4142  45.5614 0007435  96.8755 263.3361 15.85448282229553
CubeSX-HSE
1 47952U 21022W   25133.67151462  .00305593  00000-0  12098-2 0  9997
2 47952  97.4164  45.9736 0006576  96.4227 263.7792 15.85967300229595
GRBAlpha
1 47959U 21022AD  25133.46968139  .00287899  00000-0  12243-2 0  9998
2 47959  97.4151  45.8378 0006913  95.5159 264.6900 15.84505485228386
TUBIN
1 48900U 21059X   25133.83637533  .00042149  00000-0  55813-3 0  9995
2 48900  97.6738 300.9414 0002331 327.5953  32.5158 15.58188863215877
LEDSAT
1 49069U 21073D   25133.79679496  .00059097  00000-0  80551-3 0  9994
2 49069  97.3900 214.2864 0011934 173.4487 186.6926 15.57255117207261
CUTE
1 49263U 21088D   25133.18092285  .00013749  00000-0  28381-3 0  9991
2 49263  97.4521 208.6615 0007222 350.1234   9.9872 15.45954222200199
TeikyoSat 4
1 49396U 21102B   25133.53716541  .00002074  00000-0  14036-3 0  9993
2 49396  97.4114 172.9406 0011523 220.6000 139.4370 15.07521937192470
Z-Sat
1 49399U 21102E   25133.85648579  .00004633  00000-0  25649-3 0  9991
2 49399  97.3818 176.1813 0017976 191.3370 168.7460 15.14176757192933
KOSEN 1
1 49402U 21102H   25133.68165206  .00006881  00000-0  32224-3 0  9992
2 49402  97.3723 179.2265 0016626 167.5261 192.6389 15.19910801193201
HO-113
1 50466U 21131B   25133.88523220  .00000626  00000-0  20946-3 0  9991
2 50466  98.5090 223.3711 0003763 199.3141 160.7906 14.40781266177609
IRIS-A
1 51044U 22002BN  25133.76190034  .00325983  41463-4  10599-2 0  9992
2 51044  97.3223 213.1247 0006858 232.9400 127.1247 15.90675012185621
Foresail-1
1 52766U 22057AL  25133.35511067  .00182870  00000-0  82781-3 0  9999
2 52766  97.6040 282.2201 0003405 280.3998  79.6886 15.83457627165578
SNUGLITE 2
1 52899U 22065F   25133.27286165  .00001298  00000-0  26152-3 0  9998
2 52899  98.1648 275.5193 0007440 189.4566 170.6497 14.63145573152491
IO-117
1 53106U 22080B   25051.21822557 -.00000003  00000-0  00000+0 0  9995
2 53106  70.1434 106.3440 0008542  48.0089 312.1297  6.42557744 61200
UmKA 1 (RS40S)
1 57172U 23091G   25133.86090036  .00005617  00000-0  30305-3 0  9996
2 57172  97.5596 189.3851 0015984  70.5687 289.7271 15.15051259103431
CubeBel-2 (EU11S)
1 57175U 23091K   25133.89242482  .00009594  00000-0  46330-3 0  9999
2 57175  97.5596 190.4054 0013857  79.3225 280.9568 15.18786445103509
VERONIKA
1 58261U 23174F   25133.82607518  .00110013  00000-0  11702-2 0  9999
2 58261  97.4137 218.5384 0006520 162.6434 197.5049 15.63640487 84499
ENSO
1 58470U 23185J   25133.85726007  .00049025  00000-0  78244-3 0  9990
2 58470  97.3752 208.1760 0008858 173.6619 186.4748 15.53018916 80886
EIRSAT-1
1 58472U 23185L   25133.85045111  .00087178  00000-0  98124-3 0  9992
2 58472  97.3714 209.6567 0007774 177.5749 182.5548 15.62252472 80983
SONATE-2
1 59112U 24043Q   25133.64247384  .00016376  00000-0  48540-3 0  9990
2 59112  97.5104 264.3045 0011273 204.7875 155.2827 15.34863211 66205
MO-122
1 60209U 24125G   25133.53197508  .00016260  00000-0  47599-3 0  9995
2 60209  97.2817 345.4688 0017901 230.6553 129.3105 15.35155204 47804
GRBBeta
1 60237U 24128C   25133.51654518  .00003282  00000-0  25601-3 0  9996
2 60237  61.9901 173.9006 0049766  51.2852 309.2673 15.02383821 46134
Curium One
1 60242U 24128H   25133.52948576  .00005476  00000-0  39165-3 0  9990
2 60242  61.9798 172.5294 0049706  46.9246 313.5990 15.04680904 46167
ROBUSTA-3A
1 60243U 24128J   25133.39107449  .00005297  00000-0  38431-3 0  9998
2 60243  61.9871 173.7530 0048213  44.6439 315.8519 15.04254387 46138
CatSat
1 60246U 24125J   25133.55107459  .00009019  00000-0  30655-3 0  9993
2 60246  97.2610 345.0018 0043015 188.2421 171.8118 15.29782161 45856
HYPERVIEW-1G (RS66S)
1 61772U 24199AP  25133.88261619  .00019357  00000-0  58097-3 0  9990
2 61772  97.3568   2.8130 0011855 290.2022  69.7945 15.34423094 72862
AO-123
1 61781U 24199AY  25133.86440663  .00006528  00000-0  24103-3 0  9993
2 61781  97.3580   1.9506 0014205 295.4711  64.5058 15.27999515 72807
ZIMSAT 2
1 61783U 24199BA  25133.88757977  .00032248  00000-0  83812-3 0  9996
2 61783  97.3550   3.2449 0011697 286.7971  73.1991 15.38809739 76042
HADES-R (SO-124)
1 62690U 25009CK  25133.17432537  .00031160  00000-0  11655-2 0  9996
2 62690  97.4102 214.1267 0004535 172.7345 187.3961 15.27258585 17963
HYDRA-T
1 62692U 25009CM  25133.16390783  .00034160  00000-0  12688-2 0  9993
2 62692  97.4103 214.1385 0004396 168.9995 191.1341 15.27470715 17966
JINJUSat 1B
1 63210U 25052A   25133.61060779  .00010004  00000-0  46673-3 0  9990
2 63210  97.4449  28.0841 0006264  68.4000 291.7902 15.20031229  9150
NUSHSAT 1
1 63211U 25052B   25133.54310448  .00011131  00000-0  51654-3 0  9991
2 63211  97.4440  28.0145 0006401  72.4352 287.7582 15.20187307  9144
TEVEL2-4
1 63213U 25052D   25133.68334989  .00010688  00000-0  49997-3 0  9997
2 63213  97.4357  28.0708 0005663  84.7528 275.4353 15.19923864  9164
TEVEL2-5
1 63214U 25052E   25133.68365279  .00010578  00000-0  49506-3 0  9998
2 63214  97.4358  28.0706 0005697  84.8744 275.3141 15.19909764  9169
TEVEL2-6
1 63215U 25052F   25133.42173359  .00010489  00000-0  49158-3 0  9991
2 63215  97.4360  27.8100 0005789  85.9822 274.2074 15.19863711  9129
TEVEL2-1
1 63217U 25052H   25133.42904920  .00010366  00000-0  48870-3 0  9993
2 63217  97.4338  27.7819 0005994  94.6485 265.5435 15.19659841  9123
TEVEL2-2
1 63218U 25052J   25133.62686111  .00010617  00000-0  50041-3 0  9997
2 63218  97.4336  27.9764 0006013  94.5950 265.5972 15.19661423  9150
TEVEL2-3
1 63219U 25052K   25133.62690423  .00010584  00000-0  49891-3 0  9993
2 63219  97.4337  27.9762 0005987  94.5496 265.6423 15.19657999  9159
TEVEL2-8
1 63237U 25052AD  25133.34176413  .00009856  00000-0  48062-3 0  9999
2 63237  97.4398  27.6413 0010401 106.3000 253.9379 15.18468567  9101
TEVEL2-9
1 63238U 25052AE  25133.47492971  .00009885  00000-0  48268-3 0  9994
2 63238  97.4400  27.7704 0010472 106.1428 254.0959 15.18421349  9125
TEVEL2-7
1 63239U 25052AF  25133.54216521  .00009802  00000-0  47911-3 0  9991
2 63239  97.4397  27.8327 0010458 106.2631 253.9754 15.18387571  9134
HYDRA-W
1 63490U 25052BL  25133.13879576  .00025282  00000-0  11117-2 0  9998
2 63490  97.4350  27.5703 0014740 106.3680 253.9177 15.21772249  9087
HADES-ICM
1 63492U 25052BN  25133.47565572  .00022317  00000-0  99171-3 0  9998
2 63492  97.4357  27.8877 0014974 108.3782 251.9084 15.21434686  9136
